Stations météo

réclame
Mon MeteoGroup
Cherbourg, France (7024): Température de l'air & dewpoint: 24.09.2020 04:00:00 - 30.09.2020 04:00:00 (CEST)Cherbourg, France (7024): Température de l'air 5cm: 24.09.2020 04:00:00 - 30.09.2020 04:00:00 (CEST)Cherbourg, France (7024): Température de l'air -20cm & Température de l'air -100cm: 24.09.2020 04:00:00 - 30.09.2020 04:00:00 (CEST)Cherbourg, France (7024): Vitesse du vent & gusts: 24.09.2020 04:00:00 - 30.09.2020 04:00:00 (CEST)Cherbourg, France (7024): Direction du vent: 24.09.2020 04:00:00 - 30.09.2020 04:00:00 (CEST)Cherbourg, France (7024): reduced air pressure: 24.09.2020 04:00:00 - 30.09.2020 04:00:00 (CEST)Cherbourg, France (7024): visibility: 24.09.2020 04:00:00 - 30.09.2020 04:00:00 (CEST)Cherbourg, France (7024): Ensoleillement: 24.09.2020 04:00:00 - 30.09.2020 04:00:00 (CEST)Cherbourg, France (7024): Quantités de précipitations: 24.09.2020 04:00:00 - 30.09.2020 04:00:00 (CEST)
Date & Time tt [°C] td [°C] tt 5cm [°C] tt -20cm [°C] tt -100cm [°C] ff [km/h] ff [knt] fx [km/h] fx [knt] dd ppp [hPa] vv [km] sd [min] rr [mm]
30.09.2020 04:00:00 12,4 11,3 - - - 9 5 16 9 S 1014,6 40 - 0,0
30.09.2020 03:00:00 12,4 10,8 11,8 14,9 15,4 8 4 12 7 S 1015,3 42 0 0,0
30.09.2020 02:00:00 12,4 10,6 11,5 14,9 15,4 8 5 13 7 SSW 1015,9 30 0 0,0
30.09.2020 01:00:00 11,8 10,5 10,3 15,0 15,5 8 4 11 6 S 1016,2 33 0 0,0
30.09.2020 00:00:00 11,8 9,9 11,0 15,0 15,4 8 4 12 6 SSW 1016,4 46 0 0,0
29.09.2020 23:00:00 12,1 9,8 10,2 15,0 15,4 8 4 13 7 SW 1017,0 25 0 0,0
29.09.2020 22:00:00 11,0 9,3 6,8 15,0 15,4 11 6 13 7 SW 1017,4 49 0 0,0
29.09.2020 21:00:00 10,4 8,3 8,0 15,0 15,4 10 5 13 7 WSW 1017,5 52 0 0,0
29.09.2020 20:00:00 11,4 9,0 9,3 15,1 15,5 9 5 19 10 WSW 1017,4 44 12 0,0
29.09.2020 19:00:00 15,1 10,3 15,8 15,0 15,4 14 8 25 14 W 1017,0 47 57 0,0
29.09.2020 18:00:00 16,9 10,3 19,2 15,0 15,5 15 8 26 14 W 1017,0 17 58 0,0
29.09.2020 17:00:00 17,0 9,9 19,2 14,9 15,4 19 10 30 16 W 1017,2 38 50 0,0
29.09.2020 16:00:00 17,6 10,7 20,4 14,8 15,5 23 13 33 18 W 1017,3 53 51 0,0
29.09.2020 15:00:00 17,8 11,1 19,3 14,8 15,5 19 10 30 16 W 1017,5 31 25 0,0
29.09.2020 14:00:00 16,9 11,6 18,5 14,7 15,4 20 11 29 16 W 1017,9 20 0 0,0
29.09.2020 13:00:00 16,6 11,9 19,0 14,7 15,5 21 11 31 17 W 1017,9 48 37 0,0
29.09.2020 12:00:00 17,0 12,7 17,5 14,7 15,5 20 11 32 17 W 1017,9 33 42 0,0
29.09.2020 11:00:00 15,7 13,5 15,6 14,7 15,5 19 10 28 15 W 1017,7 53 12 0,0
29.09.2020 10:00:00 15,2 13,7 13,4 14,7 15,5 19 10 26 14 W 1017,4 20 21 0,0
29.09.2020 09:00:00 13,9 12,9 13,1 14,7 15,5 15 8 25 14 W 1017,1 38 4 0,0
29.09.2020 08:00:00 13,9 13,1 13,2 14,7 15,5 16 9 23 12 W 1016,5 39 0 0,0
29.09.2020 07:00:00 14,6 14,0 14,0 14,6 15,5 15 8 27 14 W 1016,2 38 0 0,0
29.09.2020 06:00:00 14,6 14,1 14,4 14,6 15,5 17 9 34 19 W 1016,0 38 0 0,0
29.09.2020 05:00:00 15,2 14,9 15,0 14,6 15,5 24 13 35 19 W 1015,9 4,2 0 0,0
29.09.2020 04:00:00 15,5 14,9 15,1 14,6 15,5 19 10 32 17 WSW 1015,8 15 0 0,0
29.09.2020 03:00:00 15,6 15,1 15,2 14,5 15,5 15 8 27 14 WSW 1016,0 3,3 0 0,0
29.09.2020 02:00:00 15,5 14,9 15,1 14,5 15,6 19 11 29 15 WSW 1016,1 11 0 0,0
29.09.2020 01:00:00 15,3 14,7 15,0 14,5 15,5 18 10 28 15 WSW 1016,3 9 0 0,0
29.09.2020 00:00:00 15,2 14,6 14,8 14,5 15,5 16 8 26 14 WSW 1016,4 10 0 0,0
28.09.2020 23:00:00 15,2 14,4 14,7 14,5 15,6 16 9 26 14 WSW 1016,5 11 0 0,0
28.09.2020 22:00:00 15,1 14,5 14,5 14,4 15,5 19 11 28 15 WSW 1016,3 11 0 0,0
28.09.2020 21:00:00 15,0 14,5 14,4 14,4 15,6 16 9 22 12 WSW 1016,2 13 0 0,0
28.09.2020 20:00:00 14,8 14,3 14,5 14,2 15,7 15 8 26 14 WSW 1015,9 6 10 0,2
28.09.2020 19:00:00 15,4 13,8 15,1 14,3 15,6 15 8 30 16 W 1015,5 20 12 0,0
28.09.2020 18:00:00 16,0 13,3 16,4 14,2 15,6 18 10 27 14 W 1015,3 19 10 0,0
28.09.2020 17:00:00 16,8 13,1 16,9 14,2 15,6 18 10 32 17 W 1015,1 20 11 0,0
28.09.2020 16:00:00 16,3 13,2 17,0 14,1 15,6 22 12 31 17 W 1015,3 20 8 0,0
28.09.2020 15:00:00 15,2 12,5 14,7 14,1 15,6 21 11 32 18 WNW 1015,8 19 12 0,0
28.09.2020 14:00:00 14,4 12,6 13,8 14,0 15,6 18 10 31 17 WNW 1016,0 54 0 0,0
28.09.2020 13:00:00 14,1 10,7 14,5 14,0 15,6 14 8 29 16 NW 1016,0 59 0 0,0
28.09.2020 12:00:00 13,9 10,5 14,5 14,0 15,6 14 7 34 18 NW 1015,7 46 3 0,0
28.09.2020 11:00:00 13,6 9,6 14,5 14,0 15,6 19 10 34 19 NW 1015,5 30 35 0,0
28.09.2020 10:00:00 13,0 7,9 10,8 14,0 15,6 16 9 32 18 NW 1015,4 34 44 0,0
28.09.2020 09:00:00 11,7 6,6 9,5 14,1 15,6 11 6 26 14 NW 1015,0 44 7 0,0
28.09.2020 08:00:00 11,4 7,3 9,5 14,1 15,7 10 5 25 14 NW 1014,7 48 0 0,0
28.09.2020 07:00:00 11,6 8,4 9,3 14,1 15,6 13 7 26 14 NW 1014,5 8 0 0,0
28.09.2020 06:00:00 11,7 6,8 9,2 14,2 15,7 9 5 25 13 NNW 1014,1 6 0 0,0
28.09.2020 05:00:00 12,0 6,1 9,0 14,2 15,7 10 6 25 13 NNW 1014,4 5 0 0,0
28.09.2020 04:00:00 11,8 5,9 9,0 14,2 15,7 13 7 24 13 NNW 1014,8 11 0 0,0
28.09.2020 03:00:00 12,0 6,5 9,7 14,2 15,7 14 7 25 13 NNW 1015,0 13 0 0,0
28.09.2020 02:00:00 12,6 6,8 9,9 14,2 15,7 15 8 29 16 NNW 1015,3 15 0 0,0
28.09.2020 01:00:00 12,6 7,7 10,6 14,3 15,7 15 8 29 16 NNW 1015,3 20 0 0,0
28.09.2020 00:00:00 12,8 7,7 11,0 14,3 15,7 17 9 36 19 NNW 1015,2 31 0 0,0
27.09.2020 23:00:00 13,2 4,6 10,8 14,3 15,7 15 8 37 20 N 1015,0 48 0 0,0
27.09.2020 22:00:00 13,7 4,0 11,0 14,3 15,7 19 10 36 19 N 1014,8 32 0 0,0
27.09.2020 21:00:00 13,5 4,9 11,0 14,3 15,7 17 9 33 18 NNW 1014,5 31 0 0,0
27.09.2020 20:00:00 13,0 5,6 11,0 14,2 15,7 15 8 29 16 NNW 1014,2 16 16 0,0
27.09.2020 19:00:00 13,9 6,0 14,8 14,2 15,8 15 8 33 18 NNW 1013,9 22 60 0,0
27.09.2020 18:00:00 14,4 6,2 15,5 14,2 15,8 17 9 39 21 NNW 1013,8 20 60 0,0
27.09.2020 17:00:00 13,7 6,1 15,8 14,1 15,8 21 11 41 22 NNW 1013,9 20 56 0,0
27.09.2020 16:00:00 13,6 6,5 14,4 14,1 15,8 22 12 42 23 NNW 1013,9 19 53 0,0
27.09.2020 15:00:00 12,6 6,2 14,8 14,1 15,8 21 11 47 26 NNW 1014,2 20 48 0,0
27.09.2020 14:00:00 11,6 6,7 13,0 14,1 15,8 22 12 43 23 NNW 1014,2 19 15 0,0
27.09.2020 13:00:00 11,1 6,2 11,4 14,1 15,8 23 12 41 22 N 1014,4 19 1 0,0
27.09.2020 12:00:00 10,4 6,0 10,9 14,1 15,8 26 14 45 24 NNW 1014,5 20 0 0,0
27.09.2020 11:00:00 10,1 5,7 10,0 14,1 15,8 25 13 50 27 N 1014,2 19 0 0,0
27.09.2020 10:00:00 10,0 5,6 9,8 14,1 15,8 23 12 47 26 N 1013,8 41 0 0,0
27.09.2020 09:00:00 10,0 5,2 9,4 14,2 15,9 24 13 46 25 NNW 1013,4 48 0 0,0
27.09.2020 08:00:00 9,9 5,1 9,5 14,2 15,9 22 12 45 24 NNW 1013,4 47 0 0,0
27.09.2020 07:00:00 10,4 5,0 9,9 14,2 15,8 23 12 48 26 NNW 1013,6 54 0 0,0
27.09.2020 06:00:00 10,8 4,7 10,2 14,3 15,9 22 12 41 22 NNW 1013,8 59 0 0,0
27.09.2020 05:00:00 10,9 5,4 10,3 14,3 15,9 20 11 44 24 NNW 1014,1 58 0 0,0
27.09.2020 04:00:00 11,1 6,0 10,5 14,3 15,9 21 11 46 25 N 1014,4 58 0 0,0
27.09.2020 03:00:00 11,1 5,6 10,5 14,3 15,9 26 14 51 27 N 1014,4 60 0 0,0
27.09.2020 02:00:00 11,4 5,9 10,7 14,4 15,9 24 13 43 23 N 1014,7 60 0 0,0
27.09.2020 01:00:00 11,5 6,0 10,9 14,4 15,9 26 14 43 23 N 1014,9 60 0 0,0
27.09.2020 00:00:00 11,8 6,5 11,1 14,4 15,9 24 13 47 26 N 1014,8 60 0 0,0
26.09.2020 23:00:00 11,8 6,3 11,0 14,4 15,9 26 14 45 24 N 1014,6 60 0 0,0
26.09.2020 22:00:00 11,9 5,7 10,4 14,4 16,0 24 13 48 26 N 1014,4 60 0 0,0
26.09.2020 21:00:00 11,8 5,0 10,0 14,4 16,0 24 13 47 25 N 1014,1 60 0 0,0
26.09.2020 20:00:00 12,0 4,2 10,2 14,4 16,0 23 12 40 22 N 1013,6 60 19 0,0
26.09.2020 19:00:00 12,5 3,2 11,4 14,4 16,0 19 10 41 22 N 1013,4 49 46 0,0
26.09.2020 18:00:00 12,7 3,1 13,0 14,3 16,0 16 9 38 21 NNW 1013,1 60 53 0,0
26.09.2020 17:00:00 12,5 3,2 13,2 14,3 16,0 19 11 42 23 NNW 1013,0 60 50 0,0
26.09.2020 16:00:00 12,4 3,1 13,8 14,3 16,0 18 10 39 21 NNW 1012,9 32 53 0,0
26.09.2020 15:00:00 12,2 3,9 13,0 14,2 16,0 22 12 41 22 NNW 1013,1 20 52 0,0
26.09.2020 14:00:00 11,1 3,4 14,4 14,2 16,0 22 12 40 21 NNW 1013,6 27 41 0,0
26.09.2020 13:00:00 11,7 2,9 11,7 14,2 16,0 19 11 45 24 NNW 1013,5 24 50 0,0
26.09.2020 12:00:00 11,0 3,5 11,5 14,2 16,0 20 11 42 23 NNW 1013,7 39 48 0,0
26.09.2020 11:00:00 10,5 4,4 10,9 14,3 16,1 21 12 42 23 N 1013,8 41 12 0,0
26.09.2020 10:00:00 10,8 4,7 10,1 14,3 16,1 20 11 36 19 NNW 1013,4 18 14 0,0
26.09.2020 09:00:00 10,7 4,6 9,0 14,3 16,1 20 11 43 23 N 1013,1 41 7 0,0
26.09.2020 08:00:00 10,7 4,2 9,0 14,4 16,1 20 11 43 23 NNW 1012,7 60 0 0,0
26.09.2020 07:00:00 10,9 3,9 9,4 14,4 16,1 21 11 41 22 NNW 1013,0 60 0 0,0
26.09.2020 06:00:00 11,0 4,4 9,6 14,4 16,1 23 12 45 24 NNW 1013,0 60 0 0,0
26.09.2020 05:00:00 11,1 4,8 9,8 14,5 16,1 23 12 46 25 NNW 1013,1 60 0 0,0
26.09.2020 04:00:00 11,3 5,2 9,9 14,5 16,1 21 11 49 26 NNW 1013,1 60 0 0,0
26.09.2020 03:00:00 11,6 5,7 10,5 14,5 16,1 23 12 54 29 NNW 1013,3 60 0 0,0
26.09.2020 02:00:00 11,6 6,1 10,7 14,5 16,1 22 12 49 26 NNW 1013,4 60 0 0,0
26.09.2020 01:00:00 12,0 6,5 11,1 14,5 16,1 25 13 51 27 NW 1013,5 60 0 0,0
26.09.2020 00:00:00 12,2 6,2 11,4 14,6 16,2 26 14 55 30 NW 1013,4 60 0 0,0
25.09.2020 23:00:00 12,6 6,0 11,6 14,6 16,1 27 14 53 29 NW 1013,4 60 0 0,0
25.09.2020 22:00:00 13,0 5,2 12,1 14,6 16,1 31 17 63 34 NW 1013,0 60 0 0,0
25.09.2020 21:00:00 13,0 6,3 12,4 14,6 16,2 34 18 59 32 NW 1012,4 58 0 0,0
25.09.2020 20:00:00 13,5 5,6 12,6 14,6 16,2 30 16 56 30 NW 1011,8 60 14 0,0
25.09.2020 19:00:00 13,5 6,8 12,7 14,6 16,2 31 17 61 33 NW 1010,8 31 21 0,0
25.09.2020 18:00:00 14,0 5,9 14,0 14,6 16,2 32 18 59 32 NW 1010,5 20 40 0,0
25.09.2020 17:00:00 14,2 4,5 13,6 14,6 16,2 30 16 61 33 NW 1010,2 27 42 0,0
25.09.2020 16:00:00 14,2 4,5 14,5 14,5 16,2 27 15 64 34 NW 1009,6 42 37 0,0
25.09.2020 15:00:00 13,5 4,1 14,4 14,5 16,2 31 17 71 38 NW 1009,2 20 46 0,0
25.09.2020 14:00:00 13,0 5,4 12,9 14,5 16,2 29 16 66 35 NW 1008,6 20 41 0,0
25.09.2020 13:00:00 12,2 5,4 13,9 14,5 16,2 29 15 65 35 NW 1008,0 44 43 0,0
25.09.2020 12:00:00 12,0 5,2 11,5 14,5 16,2 29 16 62 33 NNW 1007,1 55 26 0,0
25.09.2020 11:00:00 11,2 6,7 11,0 14,6 16,2 24 13 55 30 NNW 1005,9 53 12 0,0
25.09.2020 10:00:00 11,0 6,7 10,1 14,6 16,2 25 14 49 26 NNW 1004,3 33 10 0,0
25.09.2020 09:00:00 11,2 6,3 9,6 14,6 16,3 23 13 48 26 NNW 1002,6 56 0 0,0
25.09.2020 08:00:00 10,8 5,7 9,0 14,7 16,3 24 13 49 26 NNW 1001,6 57 0 0,0
25.09.2020 07:00:00 10,7 6,6 9,2 14,7 16,3 19 11 53 29 NNW 1000,5 43 0 0,0
25.09.2020 06:00:00 10,7 7,2 9,0 14,7 16,3 23 12 51 27 NNW 999,4 42 0 0,0
25.09.2020 05:00:00 10,7 7,6 8,4 14,8 16,3 23 12 54 29 NNW 997,9 39 0 0,4
25.09.2020 04:00:00 9,9 7,0 8,5 14,8 16,3 29 16 51 27 N 996,3 46 0 0,2
25.09.2020 03:00:00 10,8 8,2 9,3 14,9 16,3 19 10 49 27 NW 994,1 47 0 0,8
25.09.2020 02:00:00 10,3 8,6 8,9 15,0 16,3 22 12 49 26 W 993,1 19 0 0,8
25.09.2020 01:00:00 10,2 8,6 8,9 15,1 16,3 22 12 45 24 WSW 992,8 31 0 0,6
25.09.2020 00:00:00 9,8 8,6 8,2 15,2 16,3 24 13 44 24 WSW 993,0 3,7 0 5,1
24.09.2020 23:00:00 9,1 8,2 8,1 15,2 16,3 29 16 55 30 SSW 993,8 5 0 0,8
24.09.2020 22:00:00 8,7 7,5 7,0 15,3 16,3 25 14 58 32 SSW 995,0 15 0 1,0
24.09.2020 21:00:00 9,0 6,1 6,8 15,4 16,3 20 11 32 18 SW 995,4 29 0 0,0
24.09.2020 20:00:00 9,2 6,6 7,7 15,4 16,2 18 10 31 17 WSW 995,7 35 23 0,0
24.09.2020 19:00:00 9,1 7,7 8,4 15,5 16,3 21 11 36 20 SW 995,6 30 18 0,8
24.09.2020 18:00:00 9,7 7,8 8,9 15,5 16,3 27 15 63 34 W 995,9 20 0 1,0
24.09.2020 17:00:00 11,5 9,2 10,5 15,5 16,3 18 10 31 17 SW 995,7 15 0 0,0
24.09.2020 16:00:00 10,6 8,5 10,1 15,6 16,3 21 12 34 18 SW 996,7 30 0 0,6
24.09.2020 15:00:00 10,4 8,5 9,4 15,6 16,3 24 13 59 32 WSW 997,9 24 0 1,2
24.09.2020 14:00:00 13,5 7,7 14,0 15,5 16,3 33 18 55 30 SW 998,3 25 18 0,0
24.09.2020 13:00:00 15,0 8,2 15,3 15,5 16,3 37 20 59 32 SW 998,6 20 47 0,0
24.09.2020 12:00:00 14,4 11,4 12,6 15,6 16,3 22 12 37 20 SSW 999,2 20 58 0,0
24.09.2020 11:00:00 11,2 9,3 10,0 15,6 16,3 19 11 43 23 SSW 999,7 20 2 1,0
24.09.2020 10:00:00 12,8 9,6 9,7 15,7 16,4 25 13 37 20 W 999,9 19 41 0,0
24.09.2020 09:00:00 10,5 9,3 9,3 15,7 16,4 23 12 54 29 SW 1000,3 17 3 0,8
24.09.2020 08:00:00 10,7 9,0 9,6 15,8 16,4 21 12 46 25 SW 999,8 27 0 0,0
24.09.2020 07:00:00 11,7 10,1 10,7 15,8 16,3 31 17 55 30 WSW 1000,4 3,9 0 1,2
24.09.2020 06:00:00 11,6 10,0 10,6 15,9 16,4 28 15 46 25 SSW 1000,5 13 0 0,4
24.09.2020 05:00:00 11,2 8,4 9,1 15,9 16,4 21 12 32 18 S 1001,7 38 0 0,0
24.09.2020 04:00:00 10,7 7,9 9,6 16,0 16,4 19 10 32 17 SSW 1002,7 39 0 0,0

tt = Température de l'air
td = dewpoint
tt 5cm = Température de l'air 5cm
tt -20cm = Température de l'air -20cm
tt -100cm = Température de l'air -100cm
ff = Vitesse du vent
fx = gusts
dd = Direction du vent
ppp = reduced air pressure
vv = visibility
sd = Ensoleillement
rr = Quantités de précipitations

stations d'obs. à proximité